Tracking 21045 objects as of 4-Aug-2020
HD Live streaming from Space Station
objects crossing your sky now

COSMOS 1289

Track COSMOS 1289 now!
10-day predictions
COSMOS 1289 is classified as:


NORAD ID: 12638
Int'l Code: 1981-074C
Perigee: 1,433.1 km
Apogee: 1,471.2 km
Inclination: 74.0 °
Period: 114.8 minutes
Semi major axis: 7823 km
RCS: 0.7098 m2 (medium)
Launch date: August 6, 1981
Source: Commonwealth of Independent States (former USSR) (CIS)
Launch site: PLESETSK MISSILE AND SPACE COMPLEX (PKMTR)
aabbcc
Your satellite tracking list
Your tracking list is empty




NASA's NSSDC Master Catalog

Two Line Element Set (TLE):
1 12638U 81074C   20216.27848319 -.00000024 +00000-0 -49622-4 0  9998
2 12638 074.0340 137.0196 0024366 100.3495 016.2553 12.54681621785907
Source of the keplerian elements: AFSPC